Theta_e
333 334 334 333 335 332 324 318 314 315 318 319 320 321 323 325 324 325 332 335 335 335 335 333 332 333 333 331 331 332 332 332 331 329 327 327 328 326 324 324 323 323 323 323 322 322 321 320 318 319 318 317 316 315 313 312 311 311 310 310 308 308 307 307 306 306 306 307 308 308 309 310 310 311 311 311 311 312 312 311 311 310 309 309 309
333 332 333 333 335 334 330 324 319 320 322 318 317 319 319 323 324 323 329 335 335 334 334 333 330 330 332 331 331 332 332 332 331 327 326 327 328 326 324 324 323 323 323 322 322 322 322 321 320 319 318 317 315 314 313 312 311 312 311 309 308 307 307 307 306 306 307 308 308 309 310 311 311 311 311 312 312 313 313 313 312 310 310 310 310
334 333 333 333 334 334 333 330 325 326 329 324 317 318 319 321 325 325 329 336 336 334 333 333 331 330 331 331 332 332 332 332 329 326 326 327 328 327 324 324 323 322 322 322 322 322 322 322 321 321 319 318 315 312 312 312 311 311 309 308 307 307 306 306 306 307 308 309 309 310 311 312 312 313 314 315 316 316 316 315 314 313 312 313 313
334 334 334 334 334 334 334 332 331 331 333 330 319 317 320 324 327 329 332 335 335 335 333 332 332 331 331 331 332 332 332 331 329 327 327 327 330 330 327 326 324 322 322 322 322 322 322 322 321 320 320 318 315 312 312 311 310 309 308 307 306 306 306 306 307 308 309 309 310 311 313 315 316 317 318 319 320 320 319 319 319 317 316 316 316
333 334 334 334 334 334 334 333 333 334 333 331 325 319 320 326 331 333 334 336 335 334 333 332 332 330 330 331 331 332 332 332 330 329 329 329 331 330 329 329 327 324 324 324 323 323 322 322 321 319 318 317 314 312 310 308 307 306 306 305 306 307 308 308 308 309 310 310 311 314 317 319 320 320 320 321 321 320 320 320 321 321 319 318 318
332 333 334 335 335 334 335 335 334 334 333 332 330 326 323 325 331 333 335 336 335 334 334 333 331 330 331 331 331 332 332 332 331 330 330 330 331 331 330 330 329 328 327 327 325 324 323 321 319 316 316 313 310 309 307 306 305 305 305 305 307 309 310 310 310 310 311 312 314 317 320 320 321 321 321 321 321 320 320 320 320 321 320 319 320
332 332 333 334 335 335 335 335 335 334 334 332 331 330 328 327 330 333 334 335 335 334 334 333 331 330 332 332 332 333 333 332 332 332 331 330 331 331 331 330 331 330 329 328 327 325 322 319 315 312 312 309 306 306 306 305 306 305 306 307 309 311 311 311 311 311 312 314 317 320 321 321 321 321 321 320 320 320 320 320 320 320 320 321 321
331 332 333 334 335 335 335 334 334 334 333 333 332 331 330 329 330 332 333 334 335 335 334 333 331 332 333 332 332 333 333 332 332 333 332 331 330 331 331 330 331 330 329 328 327 326 322 316 312 308 308 307 306 307 307 308 309 309 309 310 311 311 311 311 312 312 314 317 320 322 322 322 321 321 320 318 318 319 320 320 320 321 321 321 321
331 331 332 333 334 334 333 333 333 333 331 332 332 332 332 331 330 331 332 333 334 335 334 333 332 333 333 332 333 333 333 332 332 333 332 331 330 331 331 331 330 330 329 329 327 327 323 314 310 308 307 308 309 310 311 311 311 311 312 312 312 312 311 312 313 314 316 319 321 321 322 322 320 319 317 316 315 316 318 319 320 321 320 321 320
332 332 331 332 334 335 334 333 332 332 330 329 331 332 332 332 331 331 331 331 332 334 334 333 333 333 332 332 333 333 333 332 332 333 332 331 331 331 331 331 331 330 329 329 328 327 322 314 311 310 310 313 314 314 314 314 313 313 315 314 314 313 312 313 314 316 318 321 321 321 322 321 319 318 316 314 311 310 312 314 317 319 320 320 318
332 332 331 331 332 333 334 333 332 331 330 330 330 332 332 331 332 332 331 329 330 332 333 332 333 333 332 332 333 333 333 332 332 333 332 331 331 331 331 331 331 330 329 328 328 327 321 314 314 314 316 318 319 318 318 317 316 315 315 315 314 314 313 313 315 318 320 321 321 320 320 320 320 319 318 314 309 306 307 310 315 318 318 318 314
331 331 331 331 331 332 333 332 331 330 331 330 330 332 332 331 332 332 331 330 329 330 331 331 332 332 331 332 333 333 333 332 332 333 332 332 331 331 331 331 331 330 330 329 328 327 321 316 316 317 319 321 321 321 320 319 318 318 316 315 314 314 313 314 317 320 321 321 320 320 320 320 320 320 320 317 308 305 306 309 314 317 317 317 313
332 332 331 331 330 331 332 331 330 329 329 329 330 332 332 331 331 331 331 331 330 330 330 330 331 332 331 332 333 333 333 332 332 333 332 332 331 331 331 331 331 331 330 329 328 328 323 318 318 318 320 322 323 322 321 320 320 319 318 317 315 314 313 315 319 321 321 321 320 320 320 320 320 320 320 316 308 305 307 307 309 311 313 313 308
332 332 331 331 330 330 331 330 328 328 329 330 330 332 332 332 332 331 331 331 331 330 330 329 330 332 332 332 333 333 332 332 332 332 332 332 331 331 330 330 331 331 330 329 328 328 325 321 319 320 321 322 324 324 324 323 321 320 320 319 318 315 313 316 320 322 321 321 321 320 320 320 320 321 317 310 306 305 306 306 306 307 308 306 304
333 332 332 331 330 330 330 330 329 329 330 331 331 331 332 332 332 332 332 331 330 330 331 330 330 331 332 332 333 333 332 332 332 332 332 332 331 331 330 330 331 330 330 329 328 328 327 324 322 323 323 323 325 325 326 326 323 321 321 321 321 318 316 317 320 321 321 321 321 320 320 319 320 319 313 306 305 305 305 305 305 305 306 305 303
333 333 333 332 331 330 331 331 331 331 331 330 330 330 331 331 332 332 332 331 330 329 331 331 329 330 332 333 333 333 333 332 331 331 331 331 331 331 331 330 330 330 330 330 329 327 328 327 325 325 326 325 326 326 325 326 326 324 323 322 323 321 319 319 320 322 322 322 321 321 320 320 320 318 310 304 305 306 305 305 304 303 304 304 303
332 333 333 333 332 331 331 331 331 331 330 328 329 330 330 330 331 331 332 331 331 330 330 331 330 329 331 332 332 332 332 331 330 330 331 331 331 331 330 331 330 331 330 329 330 328 328 328 326 326 327 326 326 326 325 325 325 326 325 324 324 323 322 320 321 322 322 322 321 320 320 321 321 318 309 304 305 306 306 305 304 302 302 303 302
331 332 332 333 333 332 331 331 331 331 330 329 330 330 330 330 331 331 332 331 331 331 330 331 330 330 330 331 332 330 330 330 330 330 330 331 331 331 331 331 331 330 330 329 330 329 329 328 327 326 326 326 327 326 325 325 325 325 326 326 326 325 324 322 321 322 323 323 321 320 320 320 320 317 309 305 306 306 305 304 302 302 302 302 302
331 331 332 332 333 333 332 332 332 331 330 329 329 330 329 329 329 330 331 331 331 331 330 330 331 331 330 331 331 329 330 330 329 330 331 330 331 331 331 331 331 331 330 329 329 329 329 328 327 327 326 325 326 326 326 326 325 323 324 326 326 326 325 323 321 322 323 323 322 320 319 318 318 314 308 305 306 306 305 303 302 301 301 301 302
331 331 331 332 333 333 332 332 332 331 330 329 329 329 328 327 327 329 330 331 330 329 329 330 331 330 330 331 331 329 329 331 330 330 330 330 331 331 331 331 331 331 330 329 329 329 328 328 328 328 327 325 326 326 326 326 325 323 323 324 325 326 326 324 323 323 323 323 323 320 318 317 314 309 305 306 306 306 304 302 301 301 301 301 301
331 331 330 331 332 333 332 332 332 331 330 329 329 329 327 327 327 328 330 331 330 329 328 330 331 331 330 330 331 330 330 331 331 330 330 331 330 330 330 331 331 331 330 329 329 328 328 328 329 328 327 326 326 326 326 326 326 325 324 323 323 325 327 325 324 325 323 322 323 320 318 317 312 305 305 307 306 306 304 301 301 301 301 302 301
332 331 330 330 331 332 332 332 332 331 331 330 330 330 328 328 328 329 330 331 330 329 329 330 330 330 330 330 330 330 331 331 331 331 331 331 331 331 330 330 330 330 330 329 329 328 328 328 329 328 327 327 327 327 327 326 326 325 325 324 323 323 326 326 325 325 324 323 322 321 320 319 313 307 305 307 307 305 303 301 302 302 302 302 301
333 331 330 329 330 331 331 331 331 331 331 332 331 330 329 330 330 330 330 331 330 330 330 330 330 330 330 329 329 330 330 330 330 330 330 331 331 331 331 330 330 330 330 329 329 328 328 328 328 328 328 327 327 327 327 326 326 326 324 324 324 323 324 326 326 326 325 324 322 322 322 320 316 311 305 306 307 304 302 302 302 302 302 302 302
333 332 330 329 329 329 330 331 331 331 331 331 332 330 329 330 330 330 331 331 332 331 330 330 331 330 329 328 328 330 330 329 328 329 330 330 331 330 331 331 331 331 330 329 329 328 328 328 327 328 328 326 327 328 327 326 327 326 325 324 323 322 323 326 326 325 325 325 323 323 323 321 319 314 307 305 307 304 302 302 302 302 302 302 302
331 332 331 331 329 329 329 329 330 330 329 329 330 330 330 330 330 330 330 331 332 332 332 330 331 330 329 328 328 329 330 330 329 329 329 331 331 330 330 330 330 330 330 329 329 329 328 328 327 328 328 327 327 327 327 326 327 327 325 323 322 322 323 325 326 325 325 325 323 323 323 322 321 317 308 305 307 304 302 302 302 303 303 302 303
330 330 331 331 330 330 329 329 328 328 328 328 328 329 330 329 329 330 329 330 330 332 332 331 331 331 330 329 329 329 329 329 329 329 329 330 330 330 330 330 330 331 331 330 329 328 329 329 328 328 328 328 328 328 327 327 327 327 325 322 322 323 324 325 326 326 325 324 323 323 323 322 320 316 309 305 307 304 301 303 302 303 303 303 303
329 330 330 330 330 329 329 329 329 327 326 327 327 329 329 329 329 330 330 330 330 331 331 331 331 331 331 330 329 328 328 328 328 329 329 329 330 330 330 329 330 330 330 330 329 328 328 328 328 328 328 328 328 327 327 327 326 326 325 321 321 324 324 325 325 326 325 323 322 322 323 320 316 313 308 306 306 303 301 303 303 303 303 303 303
328 329 330 329 330 330 329 328 328 328 327 328 328 328 329 329 330 330 329 329 330 331 330 331 331 331 330 329 328 329 328 328 329 329 329 329 330 330 329 329 329 329 330 331 330 329 328 329 329 328 328 328 328 328 327 328 327 326 325 321 320 323 323 322 322 323 323 322 320 322 322 315 310 310 307 306 305 302 302 303 303 303 303 303 303
328 328 328 328 329 329 328 328 328 328 328 328 328 328 329 329 329 330 329 329 329 330 330 331 332 331 330 329 328 329 328 328 329 330 330 330 330 330 329 328 328 329 330 331 330 329 329 329 329 329 328 328 328 328 328 328 327 326 326 321 317 316 315 314 315 318 320 320 319 320 318 311 307 308 307 305 304 302 302 303 302 303 303 303 304
328 328 327 327 327 327 327 326 326 327 327 328 328 329 329 329 330 331 330 329 330 330 330 331 332 332 330 329 328 328 328 328 329 330 330 331 330 330 329 328 328 329 329 330 330 330 329 329 329 329 329 328 328 328 328 328 327 325 326 321 315 310 308 309 312 314 315 315 314 313 311 308 307 307 305 304 303 301 302 303 302 303 303 303 303
328 328 328 328 327 327 327 326 326 326 326 327 327 327 328 329 330 331 330 330 330 330 330 331 331 332 331 330 329 329 328 328 328 329 331 331 330 330 329 328 328 329 329 329 330 329 329 329 329 328 328 328 328 328 328 327 327 326 324 318 312 308 307 308 310 310 310 310 309 308 307 306 306 306 304 303 302 302 302 303 303 304 304 303 303
326 327 328 328 328 327 327 327 327 327 326 327 327 326 326 328 329 330 330 330 330 330 330 330 330 331 331 330 330 330 329 328 328 329 330 330 331 330 328 328 328 328 329 329 329 329 329 329 329 328 328 328 327 328 328 327 326 326 321 313 309 308 307 308 309 309 310 310 310 309 307 306 305 304 303 302 301 302 302 303 304 304 304 303 303
324 325 326 327 328 328 328 327 328 327 327 326 326 327 328 328 330 330 330 330 330 330 330 330 330 330 331 331 330 331 330 329 328 329 330 330 330 330 328 328 329 329 329 329 329 329 329 328 328 328 328 328 328 327 327 327 326 326 320 310 307 308 308 309 310 310 311 311 309 308 307 306 305 303 302 302 302 303 304 305 305 305 304 304 304
322 323 324 326 327 327 328 328 328 328 327 326 326 327 328 328 328 329 330 331 330 329 330 330 329 329 330 330 330 330 330 329 329 329 330 330 330 330 330 328 329 329 329 329 329 329 328 328 328 328 328 328 328 327 327 327 325 325 321 311 307 308 308 310 311 311 312 310 307 306 306 304 303 302 302 302 303 304 305 306 306 306 305 305 304
320 321 323 325 325 326 327 328 328 329 328 327 327 328 328 328 328 327 328 330 330 329 329 329 329 329 330 330 330 330 329 329 328 329 329 330 330 329 329 329 329 329 329 329 329 328 329 329 328 328 328 327 327 327 327 327 325 324 323 315 307 308 309 310 311 311 311 309 306 305 304 303 302 302 303 304 305 306 307 307 307 307 307 306 306
319 320 321 324 324 325 326 327 328 328 328 328 328 329 329 329 329 327 327 328 329 329 328 327 328 328 329 329 329 329 330 329 329 328 329 329 329 328 328 328 329 329 328 328 328 327 328 329 328 328 328 327 327 327 326 327 325 324 325 318 308 309 313 312 311 311 310 307 305 304 303 302 303 304 305 306 307 308 308 309 309 309 308 308 308
317 318 319 321 323 324 325 326 327 328 328 328 328 329 329 329 329 329 328 327 328 329 328 327 326 327 328 328 327 329 330 330 329 329 329 328 327 326 325 325 326 328 329 328 327 327 327 327 327 327 327 327 327 327 327 326 324 324 324 318 310 313 318 316 311 309 309 306 304 304 303 304 305 306 307 308 308 308 309 309 310 310 310 310 310
315 316 317 319 321 322 324 325 326 327 327 328 328 328 328 328 328 329 329 329 328 328 327 326 326 326 326 327 328 329 329 329 328 328 328 328 327 326 325 325 326 328 329 328 328 328 328 327 327 327 327 327 327 327 327 326 325 324 322 317 314 317 320 319 313 310 308 305 304 304 305 305 307 308 308 309 309 309 309 309 309 310 310 310 310
314 315 316 317 319 320 322 324 325 325 326 326 327 328 328 328 328 328 328 329 329 328 327 327 327 327 326 327 329 329 330 329 328 327 327 328 327 327 326 325 326 326 327 327 328 328 328 327 327 327 326 327 327 327 327 326 324 324 322 319 317 318 319 318 315 310 308 306 304 305 305 306 306 307 309 310 310 309 309 309 310 309 309 309 310
314 315 315 316 317 319 320 322 322 323 324 325 326 327 328 328 328 328 328 328 329 329 328 327 328 327 327 327 328 329 329 329 329 328 327 327 327 329 327 325 325 326 326 327 328 328 327 327 327 326 326 326 326 326 326 325 324 323 323 321 319 317 316 315 312 310 309 309 308 306 306 306 306 308 309 309 309 310 310 310 310 309 309 309 309
313 314 315 315 316 317 318 320 321 322 322 323 324 325 326 327 327 327 328 329 328 328 328 328 328 327 327 327 327 327 328 329 329 329 328 328 328 328 328 327 327 328 327 328 329 328 327 327 326 326 326 325 326 326 326 325 324 323 323 322 318 316 314 311 311 311 311 311 311 309 308 308 307 308 309 310 310 310 310 310 310 309 309 309 309
311 312 313 314 314 315 316 318 319 320 320 321 322 322 323 325 326 327 328 329 328 328 328 328 328 328 327 327 327 327 327 329 329 329 329 329 328 328 327 326 327 328 327 328 328 328 328 327 325 326 326 325 326 326 325 325 325 324 323 320 317 316 314 311 311 311 310 310 311 310 309 309 309 309 310 310 310 310 309 309 309 308 308 308 308
310 310 311 312 313 313 314 315 316 317 318 319 320 321 322 323 324 325 327 328 328 328 327 327 328 329 327 326 326 328 329 328 328 328 328 328 327 327 326 325 326 327 326 327 327 328 328 327 326 326 325 325 325 326 325 325 324 323 321 317 315 316 315 311 311 311 310 310 310 310 310 309 309 309 310 310 310 309 309 308 308 307 307 307 307
308 308 309 309 310 311 311 313 314 315 317 318 319 320 321 321 322 323 325 327 327 327 327 327 327 328 328 326 326 327 328 328 327 327 327 326 325 325 326 326 327 328 328 327 327 327 327 326 326 326 326 325 325 325 325 324 324 323 319 314 314 315 314 313 312 310 310 310 310 311 311 310 309 310 310 311 310 309 309 309 309 309 308 307 307
307 307 307 307 308 308 309 310 311 313 315 316 318 318 319 320 321 322 323 325 326 326 327 327 327 327 327 327 326 326 327 328 327 326 326 327 326 326 327 327 328 329 329 328 327 327 326 325 325 325 326 325 325 324 324 323 322 322 318 314 314 314 314 313 312 311 310 310 311 312 312 311 311 310 310 310 310 311 312 312 312 311 310 310 313
306 306 306 306 306 307 307 308 308 310 312 314 316 317 318 319 320 321 322 323 324 325 326 327 327 327 326 326 325 324 325 326 327 327 326 327 327 327 327 327 328 328 328 328 328 327 326 325 324 324 325 324 324 323 321 320 320 320 318 316 314 314 314 313 311 311 311 312 312 312 312 313 313 312 311 311 313 316 316 316 314 313 313 314 314
303 304 304 304 305 306 306 307 307 308 309 311 314 316 317 318 319 320 321 322 323 324 324 325 326 326 326 326 325 324 324 325 326 326 326 326 326 326 326 327 327 327 327 328 328 327 327 325 324 324 324 322 322 321 318 317 318 319 319 317 316 315 314 313 311 311 312 313 314 313 314 315 315 313 313 315 317 319 317 315 314 313 314 313 311
302 302 302 302 303 304 305 306 307 307 308 309 312 314 316 317 318 319 321 322 323 323 323 323 325 326 326 326 326 325 325 325 326 327 327 327 326 326 326 327 327 327 327 328 328 327 327 326 325 325 324 321 320 319 316 316 317 318 318 317 315 314 314 313 312 312 314 316 317 316 316 317 317 317 317 318 319 318 316 315 314 312 311 309 307
300 300 301 301 302 303 304 304 305 306 307 307 309 312 314 316 317 318 320 322 322 323 322 322 324 325 325 326 326 326 326 326 326 326 327 327 326 326 327 327 327 327 327 327 327 327 327 326 325 325 324 323 321 319 317 317 317 317 317 316 315 314 313 313 313 314 316 319 319 318 317 318 318 318 318 318 318 317 316 314 312 310 308 306 305
299 299 300 300 301 301 302 303 304 305 305 306 307 309 311 314 316 317 318 319 320 321 321 321 322 323 325 325 325 325 326 326 326 326 326 326 326 326 326 326 326 326 327 327 327 327 327 326 325 325 324 323 323 322 320 318 318 318 316 316 316 314 314 314 315 315 317 319 319 319 318 318 318 318 317 317 315 314 314 312 310 308 306 304 304
297 298 298 299 300 300 301 301 302 303 304 305 306 307 309 312 314 315 316 317 318 318 319 320 321 322 324 324 324 326 326 326 326 326 326 326 324 323 324 325 325 326 326 325 326 326 326 326 325 325 324 323 322 322 321 320 320 319 318 317 317 316 315 316 317 317 318 318 318 318 318 318 317 316 316 316 313 310 309 308 307 306 305 304 303
Wind_Speed
11 13 13 11 11 12 13 12 10 12 16 17 16 17 17 16 14 14 12 9 8 7 6 6 8 10 8 5 7 8 10 11 13 12 10 8 7 5 4 2 2 2 2 2 2 2 2 1 1 2 2 1 1 1 0 0 0 1 2 3 3 3 3 4 5 6 6 6 7 8 9 10 11 11 11 11 11 11 11 11 11 12 12 11 11
12 13 14 12 13 14 14 15 13 10 13 16 16 17 17 17 16 15 13 10 8 7 8 10 11 12 9 7 10 11 12 13 13 12 9 7 6 4 3 2 2 2 2 2 2 1 2 2 1 1 1 1 1 1 1 1 0 0 1 3 3 3 4 5 6 6 7 8 9 10 11 12 12 12 12 12 13 12 12 12 13 13 13 13 13
13 13 14 13 15 16 15 16 16 14 12 13 15 17 17 18 18 17 15 12 10 10 12 12 11 13 10 9 12 13 15 14 14 12 9 7 5 4 2 1 2 2 2 2 2 2 2 2 1 1 1 1 2 2 2 2 2 1 1 3 3 4 4 6 7 7 9 9 10 11 13 13 13 13 13 13 13 14 14 14 14 14 14 14 14
13 13 14 14 15 16 17 16 16 17 16 13 15 16 17 18 17 17 16 14 14 14 16 14 12 12 11 11 14 15 15 15 14 12 9 7 5 3 2 1 1 1 1 1 1 2 2 2 2 1 1 1 2 3 2 2 3 2 2 4 5 5 6 7 8 9 10 11 12 13 14 14 15 15 14 14 14 14 14 14 14 14 14 14 15
12 14 15 16 16 16 17 17 17 19 18 16 16 17 18 16 15 17 18 18 18 17 18 17 14 12 12 13 15 16 15 14 13 11 9 8 5 3 2 2 1 1 1 1 1 1 2 2 3 2 1 1 2 3 3 3 3 4 4 5 6 7 8 9 10 11 12 13 14 15 15 15 16 16 15 15 15 14 14 14 14 14 14 14 14
12 15 16 16 16 16 16 18 18 19 20 18 18 18 20 19 18 19 22 22 21 19 20 18 16 13 13 14 16 16 15 13 12 10 9 8 6 4 3 3 2 1 2 1 1 1 2 2 2 2 2 1 2 3 4 4 5 6 6 6 8 8 10 10 11 12 13 14 14 15 16 16 16 15 15 15 15 15 15 15 14 14 14 14 14
13 15 17 16 16 15 16 17 17 19 20 20 20 19 20 22 23 22 24 25 21 19 20 19 18 16 14 15 15 15 14 12 11 10 9 9 8 6 5 4 3 3 3 2 1 2 2 2 2 2 3 2 3 4 6 6 6 8 7 8 9 9 10 11 11 13 14 14 15 16 16 16 15 14 15 15 15 14 14 15 14 14 13 13 14
13 15 17 18 17 17 17 17 17 18 19 20 22 22 21 23 25 22 23 25 22 20 21 20 20 18 16 16 16 15 14 13 11 10 10 10 10 9 7 5 4 5 4 3 2 2 2 1 1 2 3 5 6 6 7 7 7 8 9 9 9 10 10 11 11 13 14 15 15 16 16 15 15 14 14 15 14 14 14 14 14 13 14 14 14
13 14 17 19 19 18 18 18 19 18 18 19 21 23 23 23 24 21 19 22 23 21 21 20 20 19 17 16 16 15 15 13 12 12 12 11 11 11 10 7 5 6 5 4 3 3 3 2 2 3 5 7 8 8 8 8 8 8 9 9 10 10 11 11 12 12 13 15 15 15 14 14 15 14 14 14 14 14 13 13 13 13 14 14 13
14 15 16 18 20 20 19 19 19 18 18 18 20 22 23 23 23 22 21 21 23 21 21 20 19 19 16 15 17 17 16 14 14 14 13 12 12 12 11 8 7 7 5 4 4 4 4 3 5 6 8 9 10 9 9 9 9 8 8 9 9 11 11 11 11 12 13 14 15 14 14 14 15 14 14 13 13 13 13 13 13 14 14 13 13
16 17 18 18 19 21 20 20 20 19 18 18 20 22 22 22 22 24 24 22 23 21 19 18 17 18 17 16 18 18 17 16 15 15 14 13 14 12 11 9 8 7 6 5 5 5 5 5 7 8 9 10 9 9 9 9 10 9 8 9 9 10 11 11 11 11 13 14 13 13 13 14 14 14 13 13 13 12 12 13 14 15 15 13 13
18 19 20 19 19 21 21 21 21 20 19 19 20 21 21 21 21 23 24 23 23 21 19 19 18 20 20 19 19 18 18 16 15 16 15 15 14 12 11 10 8 8 8 6 5 5 6 7 8 9 9 9 9 9 9 9 10 10 9 9 9 9 10 11 11 12 13 13 12 12 12 13 13 13 12 11 12 12 12 14 15 15 15 14 13
18 19 20 21 20 21 21 22 22 21 20 20 20 21 21 21 20 22 24 24 23 23 23 22 21 23 25 22 20 19 18 16 17 17 16 16 15 14 13 11 10 10 10 8 6 6 8 9 9 10 9 9 9 9 9 9 10 10 10 9 9 9 10 11 12 12 12 12 11 11 12 12 12 12 11 11 13 12 12 14 15 15 14 14 14
18 19 20 21 21 21 22 21 22 22 21 21 21 21 22 22 21 22 23 24 23 24 26 24 23 24 25 24 22 20 18 17 18 17 18 18 17 16 14 12 11 11 10 9 7 8 10 10 10 10 10 9 9 9 9 9 9 10 10 10 10 10 10 11 12 12 12 11 10 11 12 12 12 12 12 12 13 12 12 13 14 14 13 13 13
16 18 20 21 21 21 22 21 22 22 21 20 20 21 22 22 23 23 23 24 23 23 27 27 25 22 21 22 21 18 16 18 19 19 18 19 19 17 15 13 12 11 10 9 9 10 11 11 12 11 11 11 10 10 10 10 10 11 10 10 10 10 10 11 12 12 11 10 10 11 12 12 12 12 12 12 13 12 12 12 12 12 12 12 13
16 17 18 20 21 21 22 22 23 22 21 20 19 20 21 22 23 24 24 24 23 23 27 29 27 23 21 20 18 16 16 18 20 21 20 20 20 18 15 15 14 13 12 10 10 11 11 12 13 12 12 11 11 11 11 11 12 12 11 11 10 10 10 10 12 12 10 10 10 10 12 12 11 10 11 12 12 11 11 10 10 10 10 11 12
17 17 17 18 20 22 22 23 24 24 23 22 21 20 20 21 23 25 24 24 23 23 25 27 27 26 24 20 16 15 16 18 18 20 22 21 20 19 17 17 17 16 14 12 12 12 11 12 13 13 12 11 11 11 12 12 12 13 13 13 11 10 10 10 11 11 11 10 10 10 12 12 10 10 11 12 11 10 10 9 9 9 10 11 12
18 16 16 17 19 22 23 23 23 24 23 22 22 22 20 20 22 24 25 24 23 23 25 26 26 26 26 24 20 17 16 17 17 17 21 22 21 21 20 19 18 17 16 15 14 13 12 13 13 13 13 13 12 12 12 12 12 13 14 14 13 12 12 11 11 12 11 10 10 10 12 12 11 10 11 11 11 10 9 9 8 9 10 11 11
18 16 15 15 18 20 22 22 22 22 23 22 22 22 21 19 21 23 24 25 25 25 25 26 26 25 26 26 25 22 16 15 18 16 18 22 23 23 22 21 19 18 17 18 17 15 14 14 14 13 14 14 13 13 13 12 12 13 13 14 15 14 14 13 13 12 12 11 9 9 11 12 12 12 11 11 10 9 8 8 8 9 9 10 9
16 16 16 15 17 19 20 21 22 22 22 22 21 20 20 20 21 23 25 26 27 26 25 26 27 26 26 26 27 25 19 16 17 16 16 20 24 25 24 22 20 19 19 19 19 17 15 15 15 14 14 14 14 14 14 13 13 13 14 14 15 16 16 15 15 14 13 12 10 8 9 11 11 12 11 11 10 9 8 8 8 9 9 9 8
16 14 14 15 16 17 19 19 20 20 20 21 20 19 19 20 22 23 26 27 27 26 26 27 28 26 25 26 27 27 24 18 16 16 16 17 21 25 26 23 22 22 21 20 20 18 17 16 16 15 14 14 14 15 15 14 14 14 15 15 15 17 18 17 17 16 15 14 12 10 10 11 11 10 10 10 9 8 8 8 8 8 8 9 8
15 13 12 13 14 16 17 17 16 17 18 19 18 18 18 19 21 23 25 28 28 27 26 26 27 27 25 25 27 28 27 23 19 18 17 17 17 21 24 25 24 23 22 22 21 20 19 18 17 16 15 15 15 15 15 15 14 14 15 16 17 17 19 19 18 17 17 16 15 13 11 11 11 10 10 9 8 8 9 9 8 8 8 9 9
14 12 12 12 14 15 16 16 15 15 17 17 16 16 17 19 21 22 24 27 29 28 27 27 27 27 26 25 26 26 27 27 25 22 20 19 18 18 20 23 24 23 23 22 22 22 21 20 19 18 16 16 16 16 16 16 14 14 15 17 18 17 19 20 20 19 18 18 16 15 13 12 12 11 10 9 8 8 9 9 9 9 9 9 9
15 13 11 12 13 13 14 15 14 15 16 17 17 17 18 20 21 22 24 27 29 29 28 28 28 28 27 27 26 24 25 26 26 25 23 21 19 19 19 20 22 23 23 22 22 23 23 21 20 19 17 16 16 15 17 17 15 15 15 16 18 18 19 20 21 20 20 19 17 16 15 13 13 13 10 9 8 8 10 10 9 9 9 9 9
17 15 13 13 13 12 13 14 13 14 15 15 18 20 20 20 21 22 23 25 28 30 29 29 30 29 27 27 26 25 25 25 24 26 25 22 20 20 19 19 21 23 23 22 23 23 24 23 21 20 18 17 17 17 18 17 15 16 16 16 17 19 19 21 22 22 21 19 18 17 17 16 16 14 11 10 9 9 11 10 10 10 9 9 9
18 17 16 16 15 13 14 14 13 14 14 14 16 18 19 20 22 22 23 23 25 27 29 30 30 28 26 25 26 25 25 25 25 26 27 26 23 22 22 21 21 23 24 23 23 25 26 25 23 22 21 20 19 18 18 16 15 16 15 15 17 19 21 22 23 22 21 20 19 20 19 18 18 16 13 11 10 11 12 11 11 10 9 9 9
15 15 16 17 16 14 14 14 15 16 16 17 17 18 20 21 22 22 22 22 23 24 26 28 30 30 27 26 26 26 26 26 26 26 26 27 25 23 24 24 22 23 24 23 25 26 26 25 24 24 23 22 21 19 16 16 16 16 15 15 17 19 22 23 23 23 22 21 21 21 20 18 17 16 14 12 11 12 13 12 11 10 9 9 9
13 13 13 14 14 13 14 14 15 16 17 18 19 20 21 22 21 22 22 22 22 24 24 26 29 30 29 27 27 27 27 26 26 25 25 27 26 24 26 27 25 25 24 22 25 27 25 24 25 25 25 24 22 19 17 17 17 16 15 16 17 19 21 22 22 22 23 22 21 21 20 17 16 15 14 13 12 14 14 12 11 10 10 9 9
12 12 12 13 12 13 13 14 15 16 16 18 19 20 22 22 21 21 22 22 22 23 24 26 28 29 29 28 28 28 28 27 25 25 25 26 26 25 26 27 26 28 27 25 27 28 26 25 25 25 25 24 22 21 19 18 17 16 16 17 18 19 20 20 21 21 21 21 20 20 19 17 16 16 15 13 13 15 14 13 12 11 10 10 9
11 11 12 12 12 12 13 14 15 15 15 16 17 19 21 22 23 22 20 20 22 23 23 24 26 27 27 27 28 28 28 27 26 25 24 25 26 26 27 27 27 31 30 27 28 28 27 27 25 24 26 25 23 22 20 19 17 16 17 18 18 19 19 19 19 19 19 19 18 18 18 18 17 15 14 14 15 15 14 13 12 11 10 10 9
8 9 10 12 12 12 13 14 14 14 14 15 17 19 21 22 24 23 20 18 19 21 22 22 22 24 26 27 28 29 28 27 27 26 26 26 26 26 28 28 29 33 33 27 25 26 27 27 27 25 25 25 24 22 21 19 18 17 18 19 20 20 20 20 19 19 18 17 17 17 18 18 17 15 14 14 15 15 14 13 12 11 11 10 10
7 7 8 10 11 12 13 14 15 15 15 15 16 18 19 20 21 20 18 17 17 19 21 22 21 22 25 27 28 28 28 27 26 26 27 26 25 26 28 28 28 30 31 27 25 25 25 26 28 26 25 24 23 23 22 20 18 17 17 19 21 21 21 21 20 19 18 16 16 17 17 17 16 15 15 15 16 15 14 14 12 12 11 11 10
9 9 9 9 10 10 11 13 15 16 16 16 16 18 19 19 20 19 17 16 17 19 21 22 23 23 24 27 28 28 27 26 26 27 27 27 26 26 27 28 27 26 26 25 26 26 25 26 28 27 26 26 25 24 23 22 20 18 18 20 22 23 23 22 21 19 17 16 16 17 17 17 16 16 16 16 16 15 15 14 13 12 12 11 11
8 9 10 10 9 10 10 11 13 15 16 16 17 17 17 17 18 17 16 16 17 19 21 22 23 23 24 25 27 27 26 26 26 27 28 28 26 26 27 28 27 26 26 26 27 28 28 29 29 28 28 27 26 25 24 23 22 21 20 22 24 24 24 23 22 20 18 16 16 17 16 16 16 17 17 17 16 16 15 14 13 13 12 12 11
7 6 7 9 10 11 11 11 12 13 15 16 17 16 15 15 15 14 14 17 19 20 21 22 23 24 24 25 26 26 26 26 26 27 27 28 27 27 28 29 26 24 25 25 26 27 29 29 29 30 30 29 28 26 24 24 24 22 21 23 25 25 24 24 22 20 17 16 16 17 17 17 17 17 17 17 17 16 15 14 13 13 12 12 12
12 8 5 7 9 11 12 12 13 14 15 15 15 15 14 14 16 15 15 17 20 22 22 22 22 23 23 24 25 25 25 26 26 25 26 27 28 28 28 28 26 25 25 24 23 24 26 27 28 29 30 30 29 28 25 25 25 24 21 22 26 26 23 23 23 20 17 16 16 17 17 18 18 18 18 18 17 16 15 14 13 13 12 12 13
17 13 8 6 7 10 11 13 14 14 16 16 15 14 13 13 15 17 18 18 19 21 22 22 22 23 23 22 23 24 24 25 25 25 26 27 27 26 26 27 27 27 28 26 24 24 25 25 26 29 30 31 31 30 28 27 28 26 22 22 26 26 22 21 22 20 17 17 17 18 19 19 19 18 18 18 17 16 15 14 13 13 13 13 13
18 17 14 9 7 9 10 12 14 15 16 17 16 16 16 15 15 16 17 18 18 18 20 21 21 21 21 22 22 23 23 24 25 25 26 27 27 26 26 25 25 26 28 28 26 26 26 25 26 29 31 33 34 32 30 30 30 28 26 24 26 25 23 22 22 19 18 18 19 19 20 19 19 18 18 17 16 15 15 14 14 14 14 13 13
19 18 17 14 10 10 10 12 16 16 16 17 16 17 17 16 15 15 15 17 18 18 18 20 20 20 20 21 22 22 23 24 25 25 25 25 26 26 25 23 23 24 27 28 27 28 27 26 27 29 31 34 34 32 31 31 30 29 28 28 29 27 23 24 24 21 18 19 19 19 19 19 18 18 17 17 16 15 15 15 15 15 14 14 14
21 19 18 16 13 11 11 12 15 17 18 18 17 16 16 14 14 15 16 16 17 17 18 20 21 20 19 20 21 21 22 23 25 25 25 24 25 25 24 24 24 25 27 27 28 29 28 28 29 29 31 33 33 32 32 32 32 32 31 30 31 28 24 24 25 22 19 20 19 19 19 19 19 19 18 18 17 17 16 16 16 15 15 15 16
23 21 19 17 15 13 12 12 13 16 17 18 18 17 16 15 14 16 17 17 16 17 18 19 19 19 19 20 21 21 22 23 25 25 25 24 25 25 25 26 27 28 28 29 29 29 29 29 30 30 32 33 34 34 34 34 35 34 32 30 30 27 23 24 25 22 19 20 19 18 18 18 20 20 20 20 19 18 18 17 16 16 17 17 18
26 25 22 20 18 16 14 13 13 15 17 18 18 19 19 18 16 16 18 19 19 20 19 18 18 18 19 20 20 21 22 23 24 25 24 24 25 26 26 28 29 30 30 31 31 30 30 30 31 32 34 34 36 37 35 34 34 32 31 32 30 26 23 25 26 24 21 20 20 18 18 19 20 21 21 20 20 19 18 17 18 18 18 18 19
28 28 27 25 24 23 21 18 16 15 16 18 19 19 20 20 19 18 19 19 20 21 21 19 18 18 20 22 21 21 22 23 23 24 24 24 24 26 27 28 29 30 31 31 31 31 31 32 32 35 36 37 38 38 35 34 33 31 31 33 31 29 28 28 29 27 25 23 21 19 19 20 21 22 21 21 20 19 18 19 19 19 19 19 19
28 29 29 29 28 28 27 25 22 19 18 17 17 19 20 21 21 20 19 19 20 21 21 21 20 19 20 21 21 20 21 22 23 24 24 24 24 25 26 27 28 29 31 30 29 30 31 32 33 35 37 37 37 37 35 35 34 31 31 33 33 31 31 31 31 29 26 24 23 21 20 22 22 23 22 21 19 18 18 19 19 19 20 19 17
27 28 29 29 30 30 30 30 28 26 23 21 18 17 18 19 20 20 19 19 20 21 21 22 21 19 20 21 20 19 19 21 23 24 24 23 23 24 25 27 28 28 28 27 26 28 28 29 32 34 36 36 35 35 36 36 35 34 34 35 33 33 33 32 32 30 26 25 26 24 22 23 23 23 22 20 18 17 17 18 18 18 18 17 15
27 27 28 29 30 31 31 32 32 31 29 25 22 20 19 18 18 19 18 18 19 20 21 22 20 20 20 20 20 19 19 21 23 24 24 24 24 25 25 27 28 28 28 27 27 28 27 28 32 32 32 34 34 34 36 35 33 35 38 35 32 34 34 32 30 29 26 26 27 27 25 24 24 23 23 21 19 18 17 16 16 16 16 15 13
27 27 27 29 29 30 30 31 32 33 32 29 25 21 20 20 19 18 16 16 15 15 17 18 18 20 20 20 20 19 19 21 23 23 24 25 26 26 26 27 27 28 30 29 28 29 28 30 34 31 29 33 35 35 37 35 32 35 38 33 30 34 35 32 32 32 29 27 27 28 27 26 25 24 23 22 19 17 16 14 14 13 13 11 8
29 28 27 28 29 29 29 30 31 33 34 33 29 24 20 20 21 20 16 14 11 8 10 13 14 16 18 19 19 18 18 20 22 24 25 25 25 26 27 27 26 27 29 29 29 31 29 30 34 33 28 31 36 38 39 37 34 36 36 33 33 37 37 35 35 33 29 28 28 28 27 26 25 24 22 20 18 17 16 16 15 13 10 8 6
30 30 28 28 30 29 29 29 31 32 34 34 33 29 22 19 20 20 17 11 7 6 7 9 12 14 16 17 18 18 17 18 19 21 22 23 23 25 26 25 24 25 27 29 30 30 28 28 33 36 32 28 31 35 39 39 37 37 36 34 36 41 40 38 37 35 32 31 31 28 26 25 24 22 21 19 17 17 18 17 15 12 9 7 5
28 29 30 30 31 31 30 30 30 31 32 34 35 34 28 21 18 18 17 12 7 5 5 7 10 12 13 14 16 16 15 16 18 19 21 21 19 20 22 22 23 25 26 28 29 29 28 27 30 35 37 35 33 34 38 39 37 36 37 36 36 40 41 39 38 38 36 33 31 28 24 23 23 21 21 22 20 17 18 17 14 12 10 7 4
28 29 31 33 33 34 33 31 30 30 31 32 33 34 32 26 20 17 15 13 11 11 10 7 5 6 7 9 12 14 15 15 16 17 18 18 14 15 17 18 20 23 23 25 27 27 27 27 26 28 33 35 37 37 36 37 37 38 39 37 36 38 40 38 38 39 38 34 32 29 25 24 24 23 22 24 24 22 19 17 15 12 9 6 4
Wind_Direction
227 224 232 236 237 236 232 234 231 225 226 226 225 225 221 212 207 199 188 187 182 175 192 210 216 234 252 230 218 228 234 245 254 269 286 300 316 306 281 287 301 322 330 327 321 315 337 338 253 263 280 276 289 297 174 151 297 42 84 97 94 92 96 100 104 110 113 115 111 102 101 104 107 108 108 106 101 98 97 99 99 98 96 94 94
227 225 231 233 235 234 231 231 226 226 234 232 228 230 229 220 216 209 202 202 196 195 213 219 221 232 248 233 220 233 241 246 256 268 280 289 311 310 283 301 329 357 13 17 8 351 22 39 22 297 280 232 185 182 203 182 184 352 92 111 116 111 109 112 114 116 117 116 113 108 107 109 109 108 106 104 100 97 94 95 96 98 97 94 92
225 227 231 232 236 234 232 234 228 227 237 236 228 230 234 227 221 216 207 210 215 212 213 217 224 231 244 236 224 238 250 253 259 266 274 281 303 312 292 322 345 15 32 45 46 21 24 48 39 327 294 207 166 170 214 191 160 170 129 132 134 128 121 120 123 122 119 115 114 112 111 111 109 107 105 102 101 100 97 94 95 98 97 93 91
229 232 235 235 239 237 235 237 230 227 232 233 227 227 235 233 231 226 215 219 230 219 208 212 222 225 235 236 232 242 250 255 261 266 273 280 297 302 287 316 358 28 33 43 42 11 351 25 32 322 273 241 190 181 204 187 155 157 146 142 141 138 134 132 130 125 122 119 116 115 112 111 109 106 105 104 103 103 102 99 97 98 97 94 92
238 237 239 241 241 239 234 230 223 225 232 232 228 227 232 235 238 237 227 227 231 221 211 212 216 219 229 234 236 241 244 254 265 268 272 276 284 280 289 295 282 10 1 2 5 353 335 357 4 328 281 235 193 182 179 170 158 151 147 148 145 139 134 132 131 127 127 125 121 118 114 110 108 107 107 105 104 103 104 103 100 99 98 97 95
247 244 242 240 239 236 230 227 221 223 232 233 230 232 238 238 236 237 235 232 228 219 211 209 210 213 227 230 234 239 241 254 261 263 267 269 271 269 286 283 259 300 311 316 316 319 320 329 338 303 264 210 169 172 166 165 161 149 145 146 141 136 131 130 130 129 128 125 122 118 114 111 109 110 108 106 104 103 105 106 105 102 99 99 97
251 250 247 242 240 236 231 230 227 228 234 235 233 235 244 243 235 236 239 236 228 220 213 209 208 214 228 229 230 239 242 248 248 249 258 263 267 266 272 270 262 275 283 296 290 297 302 299 309 259 228 193 164 163 154 152 151 143 138 135 133 134 132 132 132 132 130 125 122 118 116 116 114 112 109 106 105 105 108 110 108 105 102 102 101
253 250 249 246 245 242 240 237 236 237 237 236 236 235 240 241 236 237 243 241 231 221 213 207 207 212 225 230 233 239 239 243 242 239 248 258 262 260 260 262 259 260 268 284 277 282 284 254 258 223 192 168 156 152 142 136 135 134 135 133 132 133 132 133 134 133 131 126 121 119 118 118 115 111 108 106 106 108 111 113 111 108 104 103 105
259 255 253 249 248 247 246 243 240 241 239 238 237 235 235 237 236 233 238 243 237 228 218 210 208 212 221 231 235 236 237 240 236 232 243 253 256 257 258 258 253 251 256 268 269 268 260 203 174 169 158 153 145 139 136 132 130 133 139 137 134 137 137 137 137 135 132 127 123 123 121 119 116 113 111 109 109 110 114 117 115 110 105 104 105
265 264 261 254 249 247 246 245 245 243 243 243 239 235 233 233 231 225 227 237 239 237 230 219 215 216 222 230 231 229 233 235 228 229 239 245 247 253 259 259 252 247 243 247 255 250 230 189 164 156 152 149 143 140 140 136 133 135 138 137 137 140 141 141 140 137 133 129 127 126 124 122 120 118 115 113 112 114 118 119 116 112 110 111 112
268 269 269 263 254 249 247 247 249 248 245 246 243 236 233 232 227 222 225 233 236 237 236 230 226 223 225 229 228 227 232 231 226 228 234 239 244 248 252 256 253 247 240 232 242 237 209 187 169 157 153 150 146 147 148 143 139 139 140 140 142 142 142 144 142 137 132 129 127 127 125 125 126 123 119 117 118 119 121 120 116 115 115 117 119
269 269 270 271 264 254 250 248 250 252 249 248 246 239 234 233 230 226 226 231 233 232 230 232 233 229 225 227 227 227 232 231 225 226 230 237 244 244 246 252 249 248 246 232 231 226 201 187 173 163 160 156 153 155 154 150 147 147 147 146 145 142 142 145 143 138 133 131 130 128 127 129 131 126 119 123 125 123 123 122 120 120 121 120 122
270 269 269 271 268 259 253 250 251 253 251 249 247 241 237 236 235 233 230 231 231 226 223 225 229 228 223 224 226 223 228 229 223 224 228 234 241 241 240 243 241 243 245 234 224 217 202 191 179 172 171 164 161 161 156 155 156 156 154 151 147 145 144 145 146 142 137 136 134 131 131 133 132 127 125 131 131 124 120 122 123 124 125 124 124
276 273 274 273 269 260 255 254 254 252 250 249 246 241 239 239 239 237 235 234 230 223 224 224 223 224 220 221 225 223 224 225 222 225 227 231 240 241 238 238 238 237 238 232 220 212 205 198 191 185 185 181 176 175 168 163 163 162 160 158 152 149 149 151 151 148 144 142 139 136 136 134 130 129 133 135 132 127 123 123 125 125 126 127 128
284 279 278 276 270 261 257 256 253 250 248 248 248 244 242 243 243 242 238 235 231 225 225 225 224 224 221 222 226 226 224 223 223 226 228 230 236 239 237 235 236 233 230 230 221 213 210 207 202 198 200 199 192 191 188 180 175 170 166 164 159 154 156 158 157 156 152 147 143 143 140 134 130 133 139 137 134 133 129 127 127 128 129 132 133
293 284 278 274 268 261 257 255 251 248 246 247 249 248 246 246 244 243 240 236 234 229 227 229 229 225 221 222 225 224 226 227 226 226 229 229 230 234 235 234 235 232 228 229 224 215 214 216 210 205 208 208 202 197 194 188 187 184 176 170 164 159 159 161 162 162 160 151 147 152 148 139 135 140 144 142 140 140 135 132 130 131 132 131 132
300 289 280 274 267 261 257 254 250 247 247 249 249 247 246 245 242 241 241 239 238 235 232 232 231 229 223 220 220 219 226 234 231 228 228 225 224 227 230 231 232 234 231 226 224 217 214 216 213 206 204 205 202 197 195 192 191 192 188 183 177 168 163 164 166 166 163 154 150 158 156 148 145 150 151 146 145 145 140 137 136 135 133 131 132
305 294 284 277 270 263 257 251 249 247 248 249 247 244 243 242 240 240 242 242 240 239 237 233 231 231 226 223 226 228 234 237 230 223 222 220 221 225 227 226 228 234 231 222 221 220 213 213 214 208 202 203 201 197 200 200 195 194 195 194 190 182 172 168 168 167 166 162 154 157 158 153 157 163 160 154 152 150 145 142 141 141 137 133 134
309 303 293 283 274 266 260 255 252 249 247 246 245 244 243 242 242 242 243 244 243 241 238 234 230 228 226 225 229 233 236 237 230 221 214 213 216 222 225 224 225 231 229 222 222 220 213 211 214 211 203 205 205 202 205 204 199 196 196 197 197 193 183 174 170 165 166 169 165 163 160 161 170 173 167 161 158 153 148 146 146 145 141 137 136
313 309 299 291 281 272 266 261 257 252 248 245 245 243 242 244 244 242 241 241 243 244 241 236 232 229 226 224 226 229 228 229 231 229 222 213 211 217 223 225 227 231 229 227 224 221 217 211 213 214 206 206 208 206 208 206 202 200 197 198 199 197 190 182 178 171 167 171 176 174 165 168 178 176 170 167 163 157 152 150 150 149 146 141 139
316 314 301 293 287 280 273 267 262 256 250 245 243 242 242 245 246 243 241 239 241 243 241 237 233 231 228 223 222 226 226 221 222 227 228 220 213 217 221 222 225 227 226 227 223 220 220 213 213 216 211 210 210 208 210 208 207 207 202 200 199 199 195 190 187 181 174 174 179 179 170 175 183 178 174 172 166 161 157 153 154 154 150 144 142
314 317 305 295 290 284 276 270 265 256 249 245 242 244 247 249 249 246 243 241 239 240 240 238 234 231 230 225 221 224 226 223 220 222 224 223 220 223 223 221 223 223 220 221 219 218 219 213 213 216 211 211 211 210 211 210 211 212 209 205 201 200 198 195 192 188 183 180 180 180 179 183 187 184 181 177 172 168 161 158 158 157 153 147 145
304 312 311 303 296 289 281 274 269 260 256 254 254 257 259 259 256 252 247 243 240 239 239 239 236 231 229 227 226 227 229 229 229 229 228 226 224 227 227 226 228 227 221 217 216 218 218 215 215 216 212 211 212 212 211 211 210 209 210 210 205 203 202 197 194 191 189 186 182 183 184 187 192 192 186 181 179 174 166 163 162 159 155 151 150
295 297 303 306 303 296 287 281 276 271 268 266 268 272 271 268 264 259 255 250 246 243 240 238 235 232 229 229 231 233 233 234 235 235 235 233 229 229 231 230 230 229 223 217 213 214 219 220 217 217 216 213 213 213 212 211 209 207 209 211 209 207 204 199 195 193 193 191 188 186 185 188 196 198 191 185 185 181 174 170 166 162 159 156 157
306 298 296 302 303 298 294 289 286 286 284 280 277 276 274 273 270 265 261 257 252 250 246 242 237 233 231 232 234 234 234 236 236 234 234 232 231 232 233 234 232 227 222 218 213 211 215 219 217 216 219 217 214 214 214 211 209 211 213 211 209 207 203 198 196 196 195 193 192 189 186 190 199 202 195 188 189 187 181 175 171 168 162 160 162
313 306 299 297 297 298 301 302 302 301 298 294 284 278 276 273 270 268 266 262 256 252 250 246 240 234 232 233 233 233 234 236 236 235 233 230 231 234 231 231 230 225 219 215 213 212 212 213 213 214 215 216 217 216 214 212 210 212 213 210 209 206 200 197 197 198 196 195 195 193 191 196 201 202 198 192 192 191 185 180 176 172 166 164 166
315 310 301 296 295 297 300 304 307 305 300 297 289 281 276 271 267 265 266 265 259 255 251 246 241 236 233 232 233 234 233 236 237 236 234 232 234 237 232 226 222 219 217 213 212 214 214 210 209 212 212 213 217 218 214 211 210 211 211 210 208 203 199 199 200 199 196 196 198 197 199 202 200 198 200 196 193 193 188 183 180 176 171 170 172
328 321 314 309 303 302 303 304 306 304 300 298 293 288 281 274 268 263 261 262 261 258 253 248 244 238 234 233 234 235 234 236 237 234 232 232 234 236 232 225 218 213 211 210 210 212 213 209 207 209 211 213 214 214 212 211 211 211 212 210 205 202 201 201 201 200 198 199 201 201 204 205 198 197 202 199 194 194 191 185 182 179 177 178 179
340 332 330 325 317 314 311 308 306 304 301 298 294 290 284 277 271 265 261 259 260 260 256 252 247 239 235 235 236 236 235 235 235 231 230 230 231 230 228 225 223 216 209 205 208 210 208 208 208 206 207 213 214 211 211 212 212 213 215 211 205 204 203 200 200 199 199 201 203 203 206 207 203 202 204 200 196 195 192 187 184 182 182 184 184
344 338 333 328 323 320 314 308 305 303 302 300 296 292 288 281 273 266 262 260 258 258 255 254 251 244 238 237 236 235 234 233 233 230 228 228 228 228 226 225 225 223 219 211 207 209 205 205 210 208 204 209 213 211 211 212 213 214 214 212 205 204 204 199 197 198 197 199 202 204 207 210 208 206 205 201 197 196 192 187 185 185 188 188 187
340 337 333 330 326 322 318 315 311 307 304 303 300 297 293 286 277 270 264 260 258 255 251 249 250 247 242 238 234 233 233 233 232 231 229 229 230 229 226 225 224 224 226 223 213 208 206 206 208 209 209 211 209 210 212 211 213 214 212 209 203 201 203 199 194 195 196 199 204 208 211 212 210 208 205 201 198 196 191 187 187 187 189 191 191
317 319 327 332 326 319 319 317 313 311 309 308 305 302 298 293 284 274 264 259 259 257 252 248 248 248 243 238 235 235 234 234 233 232 232 232 232 230 226 228 228 221 221 227 224 213 209 210 208 207 213 217 212 211 213 210 209 211 210 207 202 199 200 198 194 195 199 205 212 217 217 215 211 208 204 200 198 196 190 188 189 190 191 194 195
299 299 306 317 318 314 313 313 312 311 311 312 310 304 302 299 291 280 266 259 261 261 256 252 249 247 244 241 240 238 236 234 234 234 234 233 232 230 227 228 229 219 214 223 225 215 207 209 210 209 211 216 216 213 213 210 205 206 206 205 204 201 200 197 196 199 204 211 217 220 219 214 210 205 202 199 196 194 190 190 191 192 195 196 197
300 296 301 308 313 314 313 310 310 310 308 308 308 306 303 299 297 293 280 268 266 263 259 255 250 247 245 244 243 242 239 238 238 236 234 233 232 232 230 229 230 224 216 218 221 214 206 206 208 209 209 214 217 216 214 210 206 203 202 202 203 204 202 201 202 206 210 216 218 217 214 210 205 202 198 195 194 193 192 193 194 195 197 199 199
333 313 312 317 320 320 317 310 309 310 307 303 304 307 303 297 298 298 285 271 266 262 258 253 249 247 247 248 247 245 242 240 240 238 235 232 232 233 232 232 236 236 225 218 215 211 208 206 203 203 205 209 213 217 215 210 207 206 204 203 202 204 205 206 208 211 214 218 216 211 207 203 199 196 194 194 194 195 195 196 197 198 200 202 203
358 350 331 320 321 324 323 322 323 319 311 304 302 304 304 300 296 290 281 273 267 262 257 249 246 247 247 248 247 245 245 243 240 237 234 232 232 233 233 232 238 243 236 228 222 217 214 210 202 201 205 207 210 214 212 205 207 212 212 206 202 202 205 209 211 212 216 219 214 207 201 196 195 193 193 196 197 198 199 199 200 202 204 207 209
5 1 354 331 319 323 327 331 333 324 312 305 297 290 289 292 292 287 281 274 267 264 258 248 244 246 247 246 244 243 243 241 237 233 231 232 232 233 234 235 237 239 237 236 233 227 222 217 211 207 207 208 209 211 208 203 205 212 214 209 204 202 205 210 212 213 217 217 210 203 198 194 194 195 197 199 200 201 202 202 204 207 209 212 214
8 7 5 353 330 320 322 325 323 318 314 310 299 288 287 285 282 282 282 277 269 263 257 249 243 244 246 245 244 242 239 235 234 233 232 233 234 235 234 234 235 235 235 235 232 226 223 221 216 209 206 207 207 207 207 206 205 207 208 208 207 206 207 211 213 213 213 211 206 202 199 197 197 199 200 202 203 203 205 206 209 212 214 217 220
15 13 12 6 350 330 318 312 309 308 312 313 303 290 290 292 285 277 277 275 267 259 252 246 241 240 241 242 243 243 239 235 234 235 235 234 234 235 234 232 233 233 234 232 226 223 224 220 216 211 206 207 209 209 208 208 208 209 206 204 205 207 210 214 214 208 202 202 203 204 204 203 203 203 202 202 203 204 205 207 211 214 216 220 224
27 22 17 12 3 346 329 314 306 304 306 311 309 297 289 291 291 282 276 270 265 259 250 242 238 237 238 239 241 242 241 240 238 236 237 236 234 233 232 231 232 232 233 230 224 224 226 223 219 214 206 205 210 211 206 201 204 208 210 209 206 205 207 210 208 203 197 196 198 201 204 204 204 204 202 201 203 203 204 207 211 215 218 223 228
36 32 25 19 11 1 347 330 316 309 306 310 315 312 301 291 285 280 277 272 264 258 252 243 240 243 243 241 240 241 241 242 241 238 239 239 236 233 233 233 232 231 232 230 226 225 225 222 218 211 204 203 208 209 204 202 204 206 209 211 207 202 203 202 201 202 203 202 200 200 203 204 204 204 202 202 203 203 205 208 212 217 223 229 235
36 35 32 28 22 17 7 353 338 325 318 316 316 315 311 303 292 281 276 273 266 259 253 244 242 250 253 248 242 241 242 242 242 241 239 237 236 235 236 237 235 233 231 231 229 226 223 221 216 208 204 205 207 209 209 208 208 205 205 206 201 197 200 201 201 204 207 210 210 208 208 207 205 204 202 203 204 205 208 212 217 224 229 234 241
35 34 32 30 27 23 18 12 2 348 337 329 323 317 313 309 303 292 280 273 266 260 254 245 240 246 254 254 248 244 241 239 239 239 237 235 236 238 240 242 239 235 233 234 232 228 224 222 216 211 208 207 206 210 213 211 207 204 203 202 197 196 201 203 203 204 204 209 215 216 211 207 206 206 204 204 206 209 214 218 223 229 233 239 245
33 32 31 30 28 25 21 17 12 6 358 347 335 324 316 312 308 300 288 276 268 264 259 252 243 240 247 254 253 249 243 239 238 240 239 238 240 241 242 243 240 238 238 238 235 232 227 221 215 211 211 211 209 210 212 210 208 204 200 198 196 198 203 205 204 204 204 206 212 215 210 205 207 208 206 207 211 214 219 224 227 231 236 239 240
27 29 29 28 27 26 23 19 15 12 9 4 355 342 329 320 313 306 298 285 274 269 264 256 247 241 245 251 254 253 248 244 243 243 241 238 237 238 239 241 242 242 243 241 238 237 233 222 216 213 212 212 211 209 209 209 210 207 199 195 196 200 204 206 206 207 207 205 207 210 207 205 208 210 208 209 213 218 221 223 223 226 230 231 229
20 23 24 23 23 23 22 20 17 14 12 8 4 359 351 341 330 318 307 294 283 276 271 262 250 241 243 247 250 251 249 248 247 244 240 236 234 235 238 240 241 241 242 239 234 234 232 221 216 216 216 216 213 208 207 210 212 207 199 196 198 202 204 206 208 210 211 208 207 208 207 206 207 208 208 209 211 215 218 217 213 213 216 220 225
19 20 21 20 19 19 19 19 16 15 13 10 6 4 3 359 352 341 326 314 303 291 280 269 252 240 242 248 251 251 249 248 245 241 238 235 234 236 237 238 237 236 237 237 231 230 229 220 214 217 220 218 214 208 206 207 207 203 202 204 206 204 204 205 204 206 207 205 205 206 204 200 199 200 203 206 209 210 206 198 192 196 207 214 224
22 22 23 22 19 18 17 17 16 15 13 11 7 5 6 7 5 0 352 341 334 316 284 268 254 243 243 249 255 256 254 250 243 239 238 237 235 234 234 233 233 232 231 231 228 229 228 220 216 217 213 205 205 206 207 206 206 204 203 206 208 204 203 201 199 199 198 193 196 203 201 191 190 196 199 198 201 200 189 182 182 188 203 211 210
24 23 25 26 24 21 19 18 18 16 13 12 10 8 7 9 10 11 8 0 349 327 293 271 262 252 244 246 253 256 253 247 238 235 239 239 232 228 227 227 229 229 227 225 226 227 227 222 219 219 215 204 200 203 203 204 206 204 198 197 202 203 202 198 195 195 191 185 187 199 202 190 184 191 191 182 185 189 183 181 185 187 190 195 198
28 27 29 32 30 27 24 22 20 18 16 14 12 11 11 9 11 15 16 16 13 356 329 288 269 257 241 240 251 255 250 240 233 234 236 234 227 224 225 226 229 229 226 225 226 226 226 224 219 218 218 214 208 205 202 201 203 204 199 197 199 202 201 198 195 193 190 187 189 196 202 191 181 183 181 170 168 179 182 180 182 184 184 189 206
35 34 34 36 35 33 30 25 22 21 20 18 15 14 14 13 12 13 12 13 18 22 22 7 318 273 239 238 250 251 243 229 221 225 226 223 226 231 228 226 229 230 228 226 226 224 223 222 219 219 220 217 214 214 209 204 205 206 204 202 203 203 202 198 196 193 191 191 195 199 198 188 178 179 183 175 166 166 172 174 174 180 186 187 199